Tracking 19846 objects as of 18-Sep-2019
HD Live streaming from Space Station
objects crossing your sky now

COSMOS 1365 FUEL CORE

Track COSMOS 1365 FUEL CORE now!
10-day predictions


NORAD ID: 13594
Int'l Code: 1982-043D
Perigee: 894.1 km
Apogee: 955.5 km
Inclination: 65.1 °
Period: 103.4 minutes
Semi major axis: 7295 km
RCS: 0.1563 m2 (medium)
Launch date: May 14, 1982
Source: Commonwealth of Independent States (former USSR) (CIS)
Launch site: TYURATAM MISSILE AND SPACE COMPLEX (TTMTR)

Note: This is SATELLITE DEBRIS
aabbcc
Your satellite tracking list
Your tracking list is empty




NASA's NSSDC Master Catalog

Two Line Element Set (TLE):
1 13594U 82043D   19260.60481205 -.00000085  00000-0  42079-5 0  9994
2 13594  65.0680 291.7693 0042038 149.7269 210.6238 13.93133453902762
Source of the keplerian elements: AFSPC